sat.trackr.live / text

‹ back to catalog

SCS-01 F

NORAD 63987 · 2025-100F

PAYLOAD ACTIVE UNKNOWN

§ Identity

Operator
Country
PRC
Launch date
2025-05-14
Launch site
JSC
Launch vehicle
Mass (kg)
RCS (m²)

External: N2YO · Heavens-Above · Gunter

§ Orbital elements

Epoch: 2026-09-21T21:43:44.011200Z

Period
94.68 min
Inclination
97.3558°
Eccentricity
0.0006617
Mean motion
15.20983998 rev/d
Perigee alt
498.3 km
Apogee alt
507.4 km
Semi-major
6,881.0 km
B*
3.5431e-4
RAAN
335.4622°
Arg perigee
346.6678°
Mean anomaly
13.4382°
Rev number
7,533

§ Raw data

SCS-01 F1 63987U 25100F   26264.90537050  .00007791  00000+0  35431-3 0  99922 63987  97.3558 335.4622 0006617 346.6678  13.4382 15.20983998 75330

JSON: /api/v1/satellites/63987 · /tle

For live sub-satellite position, see the globe view (requires WebGL).

§ Visibility from observer

Set your observer location to see the next 7 days of passes ≥ 10°. The values pass through the URL so the page stays shareable.

No JS? Fill the form by hand. The geolocation button needs JavaScript.